Location: Larne
(54.8508°N, 5.8183°W)
Time: 12:59:13
(UTC+01:00)

ISS - Pass Details

Date: 03 October 2021
Orbit: 417 x 423 km, 51.6° (Epoch: 16 October)

Event Time Altitude Azimuth Distance (km) Brightness Sun altitude
Rises 19:13:56 0° 274° (W) 2,365 2.8 -3.7°
Reaches altitude 10° 19:16:11 10° 264° (W) 1,500 1.0 -4.1°
Maximum altitude 19:19:11 30° 201° (SSW) 774 -2.1 -4.5°
Drops below altitude 10° 19:22:11 10° 138° (SE) 1,498 -1.3 -4.9°
Enters shadow 19:24:06 - 128° (SE) 2,240 -0.5 -5.2°
